This is the latest recevied weather packets stored in our database for station/object VK3AFQ-13. If no packets are shown the sender has not sent any weather packets the latest 10 day(s).
| Time | Temp. | Humidity | Pressure | Rain* | Wind** | Luminosity | Snow |
|---|---|---|---|---|---|---|---|
| 1778276763 | 10° C | 96% | 1028.2 hPa | - | - | - | - |
| 1778275863 | 10° C | 95% | 1028.1 hPa | - | - | - | - |
| 1778274963 | 9.44° C | 95% | 1027.9 hPa | - | - | - | - |
| 1778274062 | 8.89° C | 96% | 1027.7 hPa | - | - | - | - |
| 1778273164 | 8.33° C | 95% | 1027.5 hPa | - | - | - | - |
| 1778272264 | 7.78° C | 94% | 1027.3 hPa | - | - | - | - |
| 1778271365 | 8.89° C | 95% | 1027.2 hPa | - | - | - | - |
| 1778270462 | 8.33° C | 94% | 1027 hPa | - | - | - | - |
| 1778269564 | 8.33° C | 94% | 1026.9 hPa | - | - | - | - |
| 1778268664 | 8.33° C | 94% | 1026.9 hPa | - | - | - | - |
| 1778267763 | 8.33° C | 94% | 1026.8 hPa | - | - | - | - |
| 1778266862 | 8.33° C | 94% | 1026.7 hPa | - | - | - | - |
| 1778265964 | 8.33° C | 94% | 1026.5 hPa | - | - | - | - |
| 1778265064 | 8.33° C | 93% | 1026.4 hPa | - | - | - | - |
| 1778264164 | 8.33° C | 93% | 1026.4 hPa | - | - | - | - |
| 1778263262 | 8.33° C | 92% | 1026.4 hPa | - | - | - | - |
| 1778262364 | 8.89° C | 92% | 1026.4 hPa | - | - | - | - |
| 1778261464 | 8.89° C | 92% | 1026.5 hPa | - | - | - | - |
| 1778260564 | 8.89° C | 92% | 1026.7 hPa | - | - | - | - |
| 1778259662 | 8.89° C | 92% | 1026.7 hPa | - | - | - | - |
| 1778258764 | 8.89° C | 91% | 1026.7 hPa | - | - | - | - |
| 1778257863 | 8.89° C | 91% | 1026.8 hPa | - | - | - | - |
| 1778256963 | 8.89° C | 91% | 1026.8 hPa | - | - | - | - |
| 1778256061 | 8.89° C | 91% | 1026.8 hPa | - | - | - | - |
| 1778255164 | 9.44° C | 91% | 1026.9 hPa | - | - | - | - |
* Rain since midnight (hover to see other rain measurements)
** Current wind speed in m/s (hover to see current wind gust speed)